[[{"header":{"parameterUnit":"m.s-1","parameterCategory":1,"la1":30.2991,"la2":30.254,"lo1":-89.0895,"lo2":-89.0444,"dy":0.0017,"dx":0.0017,"nx":28,"ny":28,"refTime":"2024-04-13T03:00:00:Z","depth":0,"parameterNumber":2,"parameterNumberName":"U-component_of_WINDS"},"data":[0,0,0,0,0,0,0,0,0,0,0,0,0,0,0,0,0,0,0,0,0,0,0,0,0,0,0,0,0,0,0,0,0,0,0,0,0,0,0,0,0,0,0,0,0,0,0,0,0,0,0,0,0,0,0,0,0,0,-0.6169,-0.6169,0,-0.6164,-0.6164,-0.6164,-0.6126,-0.6125,-0.6124,-0.6123,-0.6119,-0.612,-0.6121,0,0,0,0,0,0,0,0,0,0,0,0,0,-0.6148,-0.6149,-0.6169,-0.6169,-0.6169,-0.6164,-0.6164,-0.6164,-0.6126,-0.6125,-0.6124,-0.6123,-0.6119,-0.612,-0.6121,0,0,0,0,0,0,0,0,0,0,0,0,0,-0.6152,-0.6149,-0.6169,-0.615,-0.6148,-0.6164,-0.6164,-0.6164,-0.6126,-0.6125,-0.6123,-0.6122,-0.6119,-0.612,-0.6121,-0.6157,0,0,-0.6125,-0.6125,0,0,0,0,0,0,0,0,-0.6152,-0.6153,-0.6153,-0.6151,-0.6149,-0.6144,-0.6155,-0.6162,-0.6127,-0.6134,-0.6123,-0.6121,-0.6129,-0.6129,-0.6131,-0.6157,-0.6157,-0.6125,-0.6126,-0.6126,-0.6127,0,0,0,0,0,0,0,-0.6152,-0.6153,-0.6167,-0.6153,-0.615,-0.6142,-0.6141,-0.6157,-0.614,-0.6134,-0.6131,-0.6131,-0.6128,-0.613,-0.6131,-0.6157,-0.6125,-0.6126,-0.6127,-0.6127,-0.6213,-0.6214,0,0,0,0,0,0,-0.6154,-0.6153,-0.6168,-0.6167,-0.6147,-0.6143,-0.6142,-0.6147,-0.6139,-0.6137,-0.6132,-0.6129,-0.6129,-0.613,-0.6131,-0.6173,-0.6126,-0.6127,-0.6128,-0.6211,-0.6213,-0.6215,0,0,0,0,0,0,-0.6153,-0.6155,-0.6168,-0.6159,-0.616,-0.6145,-0.6151,-0.6148,-0.615,-0.6138,-0.6135,-0.6138,-0.6128,-0.6129,-0.6151,-0.6172,-0.6128,-0.6129,-0.6209,-0.6212,-0.6214,-0.6257,0,0,0,0,0,0,-0.6153,-0.6156,-0.6168,-0.616,-0.6161,-0.6187,-0.6152,-0.6149,-0.6152,-0.6148,-0.6143,-0.614,-0.6127,-0.6149,-0.6152,-0.6173,-0.613,-0.6207,-0.621,-0.6213,-0.6254,-0.6261,-0.6267,0,0,0,0,0,-0.6152,-0.6181,-0.6169,-0.6171,-0.6176,-0.6189,-0.6189,-0.6173,-0.6154,-0.6167,-0.616,-0.6141,-0.617,-0.6152,-0.6155,-0.6176,-0.6206,-0.6209,-0.6213,-0.6251,-0.6259,-0.6266,0,0,0,0,0,0,-0.6193,-0.6179,-0.6166,-0.6193,-0.6192,-0.6182,-0.6198,-0.6182,-0.6187,-0.6183,-0.6163,-0.6162,-0.6187,-0.6184,-0.6165,-0.6211,-0.6184,-0.6189,-0.6212,-0.622,-0.6227,-0.6227,-0.6131,0,0,0,0,0,-0.6204,-0.6215,-0.6203,-0.6228,-0.6228,-0.6213,-0.6218,-0.6205,-0.6204,-0.6204,-0.6198,-0.6198,-0.6207,-0.6214,-0.6221,-0.6253,-0.6252,-0.627,-0.6276,-0.6281,-0.6285,-0.6303,-0.6311,-0.6226,-0.6226,-0.6226,0,0,-0.6229,-0.6223,-0.6231,-0.6236,-0.6234,-0.6246,-0.6213,-0.6227,-0.6236,-0.6206,-0.6226,-0.6222,-0.6221,-0.6248,-0.626,-0.6246,-0.6309,-0.6286,-0.629,-0.6291,-0.6308,-0.6316,-0.6323,-0.6229,-0.6228,-0.6228,0,0,-0.6281,-0.6277,-0.6297,-0.6296,-0.6293,-0.6284,-0.6289,-0.6282,-0.6277,-0.6297,-0.6275,-0.6286,-0.6302,-0.6303,-0.6305,-0.6358,-0.6341,-0.6361,-0.6395,-0.6412,-0.6419,-0.6425,-0.6445,-0.6452,-0.6365,-0.6365,-0.6365,0,-0.6312,-0.6328,-0.631,-0.6325,-0.6329,-0.6302,-0.6323,-0.6323,-0.6323,-0.6326,-0.6311,-0.6331,-0.6328,-0.6356,-0.6369,-0.6372,-0.6378,-0.6362,-0.6419,-0.6425,-0.643,-0.6449,-0.6456,-0.6368,-0.6367,-0.6367,-0.6367,0,-0.6367,-0.6379,-0.6396,-0.6397,-0.6402,-0.6421,-0.6406,-0.6413,-0.6401,-0.6393,-0.6414,-0.641,-0.6417,-0.6423,-0.6411,-0.6449,-0.6441,-0.6423,-0.6395,-0.6441,-0.6458,-0.6465,-0.6371,-0.637,-0.637,-0.6369,0,0,-0.6443,-0.6434,-0.6441,-0.6441,-0.6437,-0.6446,-0.6464,-0.647,-0.6478,-0.6479,-0.6494,-0.6509,-0.6493,-0.6495,-0.6483,-0.6499,-0.6542,-0.6479,-0.6478,-0.6491,-0.6585,-0.6599,-0.6608,-0.6531,-0.6532,-0.6533,-0.6586,0,-0.6493,-0.6522,-0.6506,-0.6538,-0.6549,-0.6525,-0.654,-0.654,-0.6534,-0.6543,-0.6536,-0.6547,-0.6524,-0.6526,-0.654,-0.6534,-0.6561,-0.653,-0.6545,-0.6546,-0.6547,-0.6617,-0.6631,-0.6681,-0.6592,-0.6593,-0.6594,0,-0.6554,-0.6558,-0.6591,-0.6586,-0.659,-0.6604,-0.6609,-0.6619,-0.6618,-0.6613,-0.6617,-0.6601,-0.6619,-0.6592,-0.6618,-0.6597,-0.6602,-0.6601,-0.6602,-0.6603,-0.6573,-0.662,-0.6696,-0.6704,-0.6604,-0.6604,-0.6603,0,-0.6607,-0.6621,-0.6642,-0.6644,-0.6638,-0.6648,-0.6647,-0.6645,-0.665,-0.6655,-0.6659,-0.6666,-0.667,-0.6676,-0.6664,-0.6645,-0.6691,-0.6663,-0.6688,-0.6688,-0.6699,-0.6698,-0.6778,-0.6702,-0.6702,-0.6702,-0.6702,0,-0.6664,-0.6686,-0.6666,-0.6679,-0.6703,-0.6685,-0.6709,-0.6705,-0.6704,-0.6717,-0.6696,-0.6709,-0.6691,-0.6702,-0.6693,-0.6716,-0.6718,-0.6714,-0.6712,-0.6716,-0.6717,-0.672,-0.6716,-0.6704,-0.6703,-0.6703,-0.6702,0,-0.6727,-0.6715,-0.6737,-0.673,-0.6728,-0.6746,-0.674,-0.6753,-0.6745,-0.6762,-0.6765,-0.6754,-0.6766,-0.6754,-0.6766,-0.6759,-0.679,-0.6782,-0.679,-0.6788,-0.6814,-0.6812,-0.6898,-0.6909,-0.6826,-0.6827,-0.6828,0,-0.6765,-0.678,-0.6775,-0.6782,-0.6781,-0.6793,-0.6798,-0.6782,-0.6788,-0.679,-0.6803,-0.6813,-0.6821,-0.6842,-0.6835,-0.6844,-0.6837,-0.6866,-0.6838,-0.6843,-0.6838,-0.6837,-0.6839,-0.6872,-0.6873,-0.6874,-0.6875,0,-0.6833,-0.6826,-0.6834,-0.6841,-0.6848,-0.6852,-0.6855,-0.6862,-0.6846,-0.6854,-0.6867,-0.6872,-0.6885,-0.6896,-0.6903,-0.6902,-0.6886,-0.6884,-0.689,-0.6895,-0.69,-0.6898,-0.6807,-0.6882,-0.6881,-0.688,-0.688,-0.688,-0.6884,-0.6898,-0.6896,-0.6906,-0.6907,-0.691,-0.6922,-0.6916,-0.6926,-0.6934,-0.6924,-0.694,-0.694,-0.6948,-0.6949,-0.6962,-0.695,-0.6959,-0.6961,-0.6964,-0.6968,-0.6897,-0.6963,-0.6963,-0.6963,-0.6962,-0.6962,0,-0.6952,-0.695,-0.6959,-0.6964,-0.6973,-0.6956,-0.6959,-0.6968,-0.6981,-0.6983,-0.6991,-0.7005,-0.7016,-0.7011,-0.7021,-0.7032,-0.7025,-0.7035,-0.7034,-0.7035,-0.6978,-0.6972,-0.7041,-0.7041,-0.7041,-0.7041,-0.7041,-0.7041,-0.6988,-0.701,-0.7003,-0.7026,-0.7024,-0.7038,-0.7041,-0.7045,-0.7046,-0.7063,-0.7072,-0.7068,-0.7068,-0.7077,-0.7087,-0.7085,-0.709,-0.7103,-0.7099,-0.7046,-0.7038,-0.7031,-0.7025,-0.7104,-0.7104,-0.7155,-0.7155,-0.7156]},{"header":{"parameterUnit":"m.s-1","parameterCategory":1,"la1":30.2991,"la2":30.254,"lo1":-89.0895,"lo2":-89.0444,"dy":0.0017,"dx":0.0017,"nx":28,"ny":28,"refTime":"2024-04-13T03:00:00:Z","depth":0,"parameterNumber":3,"parameterNumberName":"V-component_of_WINDS"},"data":[0,0,0,0,0,0,0,0,0,0,0,0,0,0,0,0,0,0,0,0,0,0,0,0,0,0,0,0,0,0,0,0,0,0,0,0,0,0,0,0,0,0,0,0,0,0,0,0,0,0,0,0,0,0,0,0,0,0,2.611,2.6109,0,2.6093,2.6093,2.6092,2.6088,2.6088,2.6088,2.6088,2.6068,2.6068,2.6067,0,0,0,0,0,0,0,0,0,0,0,0,0,2.6135,2.6135,2.611,2.6109,2.6109,2.6093,2.6093,2.6092,2.6088,2.6088,2.6088,2.6088,2.6069,2.6068,2.6067,0,0,0,0,0,0,0,0,0,0,0,0,0,2.6122,2.6135,2.611,2.6105,2.6104,2.6093,2.6093,2.6092,2.6088,2.6088,2.6088,2.6088,2.6069,2.6068,2.6067,2.6058,0,0,2.6064,2.6064,0,0,0,0,0,0,0,0,2.6123,2.6121,2.6106,2.6105,2.6105,2.6093,2.6094,2.6081,2.6088,2.6094,2.6088,2.6088,2.6076,2.6075,2.6071,2.6057,2.6057,2.6064,2.6063,2.6063,2.6063,0,0,0,0,0,0,0,2.6124,2.6122,2.6103,2.6106,2.6105,2.6103,2.6101,2.6092,2.6084,2.6093,2.6093,2.6091,2.6076,2.6072,2.6071,2.6056,2.6064,2.6063,2.6063,2.6062,2.6035,2.6034,0,0,0,0,0,0,2.6126,2.6122,2.6103,2.6102,2.6114,2.6102,2.61,2.6096,2.6084,2.6083,2.6091,2.6091,2.6073,2.6072,2.607,2.6059,2.6063,2.6062,2.6062,2.6035,2.6035,2.6034,0,0,0,0,0,0,2.6126,2.6124,2.6104,2.6112,2.611,2.6102,2.6097,2.6096,2.6092,2.6083,2.6081,2.6089,2.6073,2.6071,2.6061,2.6058,2.6062,2.6061,2.6035,2.6035,2.6034,2.6037,0,0,0,0,0,0,2.6127,2.6124,2.6121,2.6112,2.6109,2.6097,2.6097,2.6095,2.6091,2.6091,2.608,2.6078,2.6073,2.6063,2.606,2.6057,2.606,2.6035,2.6035,2.6035,2.6037,2.6037,2.6037,0,0,0,0,0,2.6128,2.6122,2.6121,2.6119,2.6106,2.6096,2.6095,2.609,2.6091,2.6087,2.6081,2.6079,2.6059,2.6062,2.6059,2.6055,2.6035,2.6035,2.6035,2.6037,2.6037,2.6037,0,0,0,0,0,0,2.613,2.6121,2.612,2.6111,2.6105,2.6096,2.6091,2.6089,2.6082,2.6082,2.6075,2.6073,2.6064,2.6059,2.6062,2.6046,2.6047,2.6046,2.605,2.605,2.605,2.6051,2.6059,0,0,0,0,0,2.613,2.6124,2.6116,2.6109,2.6106,2.6099,2.6095,2.6092,2.6085,2.6082,2.6075,2.6067,2.6059,2.6054,2.6046,2.6037,2.6034,2.6033,2.6032,2.6032,2.6031,2.6026,2.6025,2.6033,2.6033,2.6033,0,0,2.6128,2.6123,2.6119,2.6109,2.6104,2.6097,2.6097,2.609,2.6085,2.608,2.6071,2.6066,2.6057,2.6047,2.6042,2.6042,2.6029,2.6032,2.6032,2.6031,2.6025,2.6025,2.6024,2.6033,2.6033,2.6033,0,0,2.6123,2.6118,2.6112,2.6107,2.6099,2.6095,2.6094,2.6085,2.6082,2.6073,2.6069,2.6063,2.6049,2.6043,2.6038,2.6031,2.6028,2.6028,2.6027,2.6021,2.6021,2.602,2.6018,2.6017,2.6028,2.6028,2.6028,0,2.6122,2.6113,2.6109,2.6102,2.6098,2.6095,2.6088,2.6083,2.6073,2.6069,2.607,2.6053,2.6047,2.6036,2.6034,2.603,2.6028,2.6029,2.6021,2.6021,2.602,2.6018,2.6017,2.6028,2.6028,2.6028,2.6028,0,2.6112,2.6106,2.6102,2.6093,2.6088,2.6082,2.6076,2.6071,2.6069,2.6064,2.6055,2.6047,2.6038,2.6035,2.6032,2.6023,2.6024,2.6023,2.6023,2.602,2.6017,2.6016,2.6028,2.6028,2.6028,2.6028,0,0,2.6107,2.6097,2.6096,2.6092,2.6083,2.6078,2.6071,2.6063,2.6059,2.6052,2.6046,2.6035,2.6034,2.6029,2.6025,2.602,2.6015,2.602,2.602,2.6019,2.6005,2.6006,2.6005,2.6013,2.6013,2.6013,2.6006,0,2.6101,2.609,2.6086,2.6076,2.607,2.6067,2.6061,2.6055,2.605,2.6044,2.6039,2.6031,2.6031,2.6027,2.6023,2.6017,2.6012,2.6017,2.6007,2.6007,2.6009,2.6003,2.6004,2.5998,2.6005,2.6005,2.6004,0,2.6092,2.6086,2.6076,2.6068,2.6066,2.606,2.6053,2.6047,2.604,2.6037,2.6031,2.6028,2.602,2.6021,2.601,2.6013,2.6009,2.6005,2.6005,2.6004,2.6005,2.6002,2.5995,2.5994,2.6003,2.6003,2.6003,0,2.6089,2.6079,2.6071,2.6068,2.6059,2.6056,2.6052,2.6045,2.604,2.6033,2.603,2.6022,2.6017,2.6011,2.6005,2.6007,2.5994,2.5995,2.5991,2.5992,2.5989,2.5989,2.5981,2.5986,2.5986,2.5986,2.5986,0,2.6082,2.6076,2.607,2.6066,2.6059,2.6054,2.6047,2.6043,2.6037,2.6031,2.6027,2.6021,2.6015,2.6008,2.6003,2.5995,2.5992,2.5989,2.5988,2.599,2.599,2.5987,2.5987,2.5986,2.5986,2.5986,2.5986,0,2.6078,2.6074,2.6066,2.6058,2.6056,2.6052,2.6045,2.604,2.6036,2.6028,2.6026,2.6019,2.6011,2.6005,2.5994,2.5991,2.5982,2.5981,2.5985,2.5984,2.5981,2.5981,2.5971,2.5969,2.5975,2.5975,2.5975,0,2.6074,2.6069,2.6062,2.6058,2.6055,2.6048,2.6044,2.6039,2.6035,2.6027,2.6023,2.6015,2.6008,2.5995,2.5988,2.598,2.5979,2.5975,2.5977,2.5979,2.5978,2.5979,2.5978,2.5975,2.5975,2.5975,2.5975,0,2.6067,2.6065,2.606,2.6053,2.6048,2.6043,2.6037,2.6034,2.6028,2.6023,2.6016,2.6011,2.6,2.5992,2.5983,2.5978,2.5975,2.5975,2.5973,2.5975,2.5977,2.5976,2.5984,2.5975,2.5975,2.5975,2.5975,2.5975,2.6063,2.6059,2.6053,2.6047,2.6042,2.6037,2.6032,2.6028,2.6022,2.6014,2.6011,2.6003,2.5996,2.5984,2.5979,2.5972,2.5972,2.597,2.5969,2.5969,2.5969,2.5979,2.597,2.597,2.597,2.597,2.597,0,2.6056,2.6052,2.6046,2.6039,2.6034,2.6033,2.6027,2.6023,2.6016,2.601,2.6004,2.5995,2.5987,2.598,2.5972,2.5968,2.5966,2.5966,2.5966,2.5965,2.597,2.5972,2.5967,2.5967,2.5967,2.5967,2.5967,2.5967,2.6051,2.6045,2.6042,2.6033,2.6029,2.6022,2.6018,2.6013,2.6009,2.5999,2.5993,2.5989,2.5982,2.5974,2.5966,2.5965,2.5962,2.5961,2.5959,2.5964,2.5964,2.5965,2.5966,2.5961,2.5961,2.5955,2.5955,2.5955]}]]